Date String (YYYY-MM-DD hh:mm:ss) UTC,Instrument flags,Ambient pressure (hPa),Sample flow (lpm),Bypass flow (lpm),Sample temperature (°C),Ambient temperature (°C),ASC tube jacket temperature (°C),LED temperature (°C),Box temperature (°C),Sample RH (%),Span deviation,Mass concentration (μg/m³),Mass concentration (μg/m³),Mass concentration (μg/m³)
DateTimeUTC,F1_M11,P_M11,Q1_M11,Q2_M11,T1_M11,T2_M11,T3_M11,T4_M11,T5_M11,U1_M11,ZSPAN_M11,X0_M11,X2_M11,X1_M11
2022-06-03 18:00:00,,0823.4,5.01,0.00,29.3,28.3,00.0,38.1,31.3,27.1,-002.1,0017.92,0011.67,0010.67
2022-06-03 18:01:00,,0823.4,5.01,0.00,29.3,28.4,00.0,38.1,31.3,28.6,-002.3,0018.95,0011.60,0010.61
2022-06-03 18:02:00,,0823.4,5.00,0.00,29.4,28.4,00.0,38.2,31.3,29.6,-002.4,0019.84,0011.55,0010.57
2022-06-03 18:03:00,,0823.4,5.00,0.00,29.4,28.5,00.0,38.2,31.4,28.0,-002.6,0019.74,0011.56,0010.60
2022-06-03 18:04:00,,0823.4,5.01,0.00,29.4,28.5,00.0,38.2,31.4,27.4,-002.4,0019.50,0011.61,0010.69
2022-06-03 18:05:00,,0823.4,4.99,0.00,29.4,28.6,00.0,38.2,31.4,27.1,-002.6,0019.50,0011.69,0010.80
2022-06-03 18:06:00,,0823.3,5.01,0.00,29.5,28.7,00.0,38.2,31.5,28.1,-002.6,0018.87,0011.69,0010.84
2022-06-03 18:07:00,,0823.3,5.01,0.00,29.5,28.5,00.0,38.2,31.4,27.3,-002.7,0019.14,0011.74,0010.92
2022-06-03 18:08:00,,0823.3,4.98,0.00,29.5,27.6,00.0,38.2,31.3,26.8,-002.5,0019.26,0011.83,0011.02
2022-06-03 18:09:00,,0823.3,5.01,0.00,29.4,27.0,00.0,38.1,31.1,27.9,-002.5,0019.24,0011.92,0011.10
2022-06-03 18:10:00,,0823.3,4.99,0.00,29.3,26.9,00.0,38.1,31.0,28.3,-002.4,0019.10,0011.95,0011.13
2022-06-03 18:11:00,,0823.3,5.01,0.00,29.2,26.9,00.0,38.1,30.9,29.1,-002.4,0018.98,0011.93,0011.11
2022-06-03 18:12:00,,0823.3,4.99,0.00,29.2,27.1,00.0,38.1,30.9,29.2,-002.1,0017.81,0011.92,0011.12
2022-06-03 18:13:00,,0823.3,5.02,0.00,29.2,27.2,00.0,38.1,31.0,28.8,-002.1,0017.05,0011.97,0011.17
2022-06-03 18:14:00,,0823.2,5.00,0.00,29.2,27.4,00.0,38.1,31.0,28.4,-002.1,0017.28,0012.03,0011.20
2022-06-03 18:15:00,,0823.2,4.99,0.00,29.1,27.5,00.0,38.1,31.0,28.3,-002.0,0017.23,0012.05,0011.20
2022-06-03 18:16:00,,0823.2,4.99,0.00,29.2,27.7,00.0,38.1,31.1,29.3,-002.1,0017.47,0012.04,0011.17
2022-06-03 18:17:00,,0823.1,5.00,0.00,29.2,27.8,00.0,38.1,31.1,29.2,-002.2,0018.08,0012.11,0011.19
2022-06-03 18:18:00,,0823.1,5.00,0.00,29.2,28.0,00.0,38.1,31.1,28.3,-002.2,0018.56,0012.21,0011.24
2022-06-03 18:19:00,,0823.1,5.00,0.00,29.2,28.1,00.0,38.1,31.2,28.1,-002.3,0018.57,0012.26,0011.29
2022-06-03 18:20:00,,0823.1,5.01,0.00,29.2,28.2,00.0,38.1,31.2,27.8,-002.3,0018.59,0012.37,0011.42
2022-06-03 18:21:00,,0823.1,5.00,0.00,29.3,28.3,00.0,38.1,31.3,27.6,-002.4,0018.58,0012.54,0011.58
2022-06-03 18:22:00,,0823.1,4.99,0.00,29.3,28.4,00.0,38.1,31.3,27.5,-002.4,0018.88,0012.74,0011.76
2022-06-03 18:23:00,,0823.2,5.00,0.00,29.3,28.4,00.0,38.1,31.3,27.7,-002.2,0019.60,0012.92,0011.91
2022-06-03 18:24:00,,0823.3,5.01,0.00,29.4,28.5,00.0,38.1,31.4,27.8,-002.0,0019.81,0013.08,0012.08
2022-06-03 18:25:00,,0823.2,5.00,0.00,29.4,28.5,00.0,38.2,31.4,27.3,-001.8,0019.75,0013.21,0012.24
2022-06-03 18:26:00,,0823.2,4.99,0.00,29.4,28.6,00.0,38.2,31.4,27.3,-001.9,0019.89,0013.38,0012.39
2022-06-03 18:27:00,,0823.2,5.00,0.00,29.5,28.7,00.0,38.2,31.5,27.6,-002.0,0019.82,0013.53,0012.54
2022-06-03 18:28:00,,0823.2,5.00,0.00,29.5,28.7,00.0,38.2,31.5,28.8,-001.8,0019.97,0013.62,0012.61
2022-06-03 18:29:00,,0823.1,5.01,0.00,29.5,28.0,00.0,38.2,31.3,28.1,-001.9,0019.81,0013.65,0012.65
2022-06-03 18:30:00,,0823.1,4.99,0.00,29.4,27.2,00.0,38.1,31.1,28.2,-002.0,0019.88,0013.72,0012.71
2022-06-03 18:31:00,,0823.1,5.01,0.00,29.3,26.9,00.0,38.1,31.0,28.3,-001.8,0020.66,0013.73,0012.72
2022-06-03 18:32:00,,0823.2,4.99,0.00,29.2,26.9,00.0,38.1,30.9,28.5,-001.7,0020.97,0013.76,0012.75
2022-06-03 18:33:00,,0823.1,5.01,0.00,29.2,27.0,00.0,38.1,30.9,28.9,-001.8,0021.41,0013.80,0012.76
2022-06-03 18:34:00,,0823.1,5.00,0.00,29.1,27.1,00.0,38.1,30.9,29.0,-001.8,0021.33,0013.83,0012.78
2022-06-03 18:35:00,,0823.2,5.00,0.00,29.1,27.3,00.0,38.0,31.0,28.6,-001.9,0021.60,0013.84,0012.77
2022-06-03 18:36:00,,0823.2,5.00,0.00,29.1,27.5,00.0,38.1,31.0,29.0,-002.2,0022.18,0013.85,0012.76
2022-06-03 18:37:00,,0823.2,5.00,0.00,29.2,27.7,00.0,38.1,31.1,28.9,-002.1,0022.90,0013.79,0012.71
2022-06-03 18:38:00,,0823.3,5.01,0.00,29.2,27.8,00.0,38.1,31.1,28.6,-002.0,0022.94,0013.85,0012.73
2022-06-03 18:39:00,,0823.3,4.99,0.00,29.2,28.0,00.0,38.1,31.1,28.3,-002.2,0022.63,0013.92,0012.84
2022-06-03 18:40:00,,0823.3,5.00,0.00,29.2,28.1,00.0,38.1,31.2,28.6,-002.2,0022.49,0014.03,0012.99
2022-06-03 18:41:00,,0823.4,5.01,0.00,29.3,28.2,00.0,38.1,31.2,28.3,-002.0,0022.97,0014.11,0013.06
2022-06-03 18:42:00,,0823.4,5.00,0.00,29.3,28.3,00.0,38.1,31.3,28.5,-002.1,0022.82,0014.16,0013.13
2022-06-03 18:43:00,,0823.4,5.00,0.00,29.3,28.4,00.0,38.1,31.3,28.1,-002.1,0022.99,0014.19,0013.18
2022-06-03 18:44:00,,0823.6,4.99,0.00,29.4,28.4,00.0,38.1,31.3,28.5,-002.2,0022.63,0014.24,0013.25
2022-06-03 18:45:00,,0823.6,5.00,0.00,29.4,28.5,00.0,38.2,31.4,28.0,-002.5,0022.65,0014.27,0013.27
2022-06-03 18:46:00,,0823.7,5.00,0.00,29.4,28.6,00.0,38.2,31.4,27.5,-002.4,0022.73,0014.34,0013.34
2022-06-03 18:47:00,,0823.7,4.99,0.00,29.5,28.6,00.0,38.2,31.4,28.2,-002.2,0022.30,0014.41,0013.39
2022-06-03 18:48:00,,0823.6,5.01,0.00,29.5,28.2,00.0,38.2,31.3,28.4,-002.1,0021.50,0014.45,0013.42
2022-06-03 18:49:00,,0823.6,5.00,0.00,29.4,27.6,00.0,38.1,31.2,28.8,-002.1,0021.52,0014.42,0013.39
2022-06-03 18:50:00,,0823.6,4.99,0.00,29.3,27.4,00.0,38.1,31.1,28.4,-001.7,0021.68,0014.41,0013.39
2022-06-03 18:51:00,,0823.4,5.01,0.00,29.3,27.4,00.0,38.1,31.1,28.6,-001.5,0021.67,0014.41,0013.36
2022-06-03 18:52:00,,0823.3,4.99,0.00,29.3,27.5,00.0,38.1,31.1,27.8,-001.5,0021.32,0014.41,0013.37
2022-06-03 18:53:00,,0823.1,4.99,0.00,29.3,27.7,00.0,38.1,31.1,27.6,-001.4,0021.40,0014.45,0013.40
2022-06-03 18:54:00,,0823.1,5.00,0.00,29.3,27.8,00.0,38.1,31.2,28.1,-001.2,0021.23,0014.46,0013.36
2022-06-03 18:55:00,,0823.1,5.00,0.00,29.3,27.9,00.0,38.1,31.2,28.5,-001.4,0021.53,0014.38,0013.27
2022-06-03 18:56:00,,0823.2,5.01,0.00,29.3,28.1,00.0,38.1,31.2,28.4,-001.5,0021.35,0014.28,0013.19
2022-06-03 18:57:00,,0823.1,5.01,0.00,29.3,28.2,00.0,38.1,31.3,27.9,-001.5,0020.72,0014.15,0013.08
2022-06-03 18:58:00,,0823.1,5.00,0.00,29.3,28.3,00.0,38.2,31.3,28.6,-001.5,0021.15,0014.01,0012.95
2022-06-03 18:59:00,,0823.1,5.00,0.00,29.4,28.4,00.0,38.2,31.3,28.6,-001.4,0021.16,0013.93,0012.87
